User: anonymous   Login
Location: Utrecht
(52.0907°N, 5.1214°E)
Time: 06:09:11
(UTC+02:00)
Language:

MOZHAYETS 4 - Orbit

View from above orbital plane
View from above orbital plane
View from above satellite
View from above satellite

Ground track
Ground track

The orbit data is extracted from the following two-line orbital elements,

1 27939U 03042A   22178.69451870  .00000499  00000-0  96952-4 0  9996
2 27939  98.1925 319.4127 0013214 170.0912 190.0558 14.67371926  2549
Epoch (UTC): 27 June 2022 16:40:06
Eccentricity: 0.0013214
inclination: 98.1925°
perigee height: 660 km
apogee height: 679 km
right ascension of ascending node: 319.4127°
argument of perigee: 170.0912°
revolutions per day: 14.67371926
mean anomaly at epoch: 190.0558°
orbit number at epoch: 254

The dashed part of the orbit path shows where the satellite is in the earth's shadow,  

DLR